Regional Weather Roundup
Issued by NWS

Home | Current Version | Previous Version | Graphics & Text | Print | Product List | Glossary On
Versions: 1 2 3 4 5 6 7 8 9 10 11 12 13 14 15 16 17 18 19 20 21 22 23 24 25 26 27 28 29 30 31 32 33 34 35 36 37 38 39 40 41 42 43 44 45 46 47 48 49 50
000
ASUS43 KMPX 271410
RWRMN
WEATHER ROUNDUP FOR MINNESOTA
NATIONAL WEATHER SERVICE TWIN CITIES/CHANHASSEN MN
900 AM CDT FRI MAY 27 2016


NOTE: "FAIR" INDICATES FEW OR NO CLOUDS BELOW 12,000 FEET WITH NO
SIGNIFICANT WEATHER AND/OR OBSTRUCTIONS TO VISIBILITY. N/A MEANS
CURRENT SKY AND/OR WEATHER CONDITIONS ARE NOT AVAILABLE.

MNZ060>063-068>070-271500-
   Twin Cities Metro

CITY           SKY/WX    TMP DP  RH WIND       PRES   REMARKS
TWIN CITIES    CLOUDY    67  58  72 SE18      29.80S
ST PAUL        LGT RAIN  67  57  70 SE12      29.82R
CRYSTAL        CLOUDY    67  57  70 SE7       29.79S
BLAINE         LGT RAIN  66  61  82 E8        29.81S
EDEN PRAIRIE   CLOUDY    68  58  70 E9        29.78S
SOUTH ST PAUL  CLOUDY    67  57  70 SE6       29.82R
LAKE ELMO      LGT RAIN  64  59  82 E6        29.85R
$$
MNZ001>005-007-008-013>017-022>024-027-028-271500-
   Northwest Minnesota

CITY           SKY/WX    TMP DP  RH WIND       PRES   REMARKS
BEMIDJI        MOSUNNY   63  53  71 E5        29.82R
HALLOCK        MOSUNNY   61  57  88 CALM      29.80R
ROSEAU         CLOUDY    55  52  88 SE3       29.81R
WARROAD        CLOUDY    55  52  88 SE3       29.82S
THIEF RVR FALL MOSUNNY   61  52  72 CALM      29.82R
CROOKSTON      SUNNY     63  55  77 NE5       29.81R
FOSSTON        PTSUNNY   66  64  94 SE5       29.81R
DETROIT LAKES  SUNNY     64  54  68 E3        29.80R
MOORHEAD       SUNNY     63  57  82 N6        29.79R
PARK RAPIDS    CLOUDY    63  53  70 NE6       29.80R
MAHNOMEN       FAIR      64  57  77 NE5       29.80R
$$
MNZ006-009>011-018-025>026-271500-
   North Central Minnesota

CITY           SKY/WX    TMP DP  RH WIND       PRES   REMARKS
BAUDETTE       PTSUNNY   60  55  83 E3        29.82R
FLAG ISLAND    SUNNY     59  55  88 CALM      29.80R
INTL FALLS     SUNNY     63  54  72 NE5       29.84R
WASKISH        SUNNY     66  55  68 NE3       29.82R
BIG FORK       PTSUNNY   61  55  82 E3        29.85R
LONGVILLE      CLOUDY    61  54  77 NE3       29.82R
GRAND RAPIDS   CLOUDY    60  53  77 N3        29.85R
CRANE LAKE     CLOUDY    61  55  82 CALM      29.87R
ORR            CLOUDY    61  52  72 CALM      29.84R
COOK           CLOUDY    57  54  88 CALM      29.87R
WALKER         CLOUDY    61  55  79 NE6       29.81S
$$
MNZ012-019>021-037-271500-
   Northeast Minnesota

CITY           SKY/WX    TMP DP  RH WIND       PRES   REMARKS
DULUTH         CLOUDY    56  51  84 S8        29.88R
ELY            MOSUNNY   64  52  63 CALM      29.87R
HIBBING        CLOUDY    58  54  86 SE5       29.86R
EVELETH        CLOUDY    59  52  77 CALM      29.88R
DULUTH HARBOR  CLOUDY    46  45  93 E5        29.89R
TWO HARBORS    CLOUDY    64  59  82 E3        29.86R
SILVER BAY     MOSUNNY   63  55  77 CALM      29.86S
GRAND MARAIS     N/A     44  42  93 CALM      29.89F
G MARAIS ARPRT MOSUNNY   64  54  68 NE5       29.89F
$$
MNZ029>031-032-039>041-046>048-054>057-064-271500-
   West Central Minnesota

CITY           SKY/WX    TMP DP  RH WIND       PRES   REMARKS
FERGUS FALLS   MOSUNNY   70  54  56 NE7       29.73F
WHEATON        PTSUNNY   73  55  53 N9        29.77R
MORRIS         CLOUDY    68  54  60 E9        29.75R
ALEXANDRIA     CLOUDY    62  54  74 NE6       29.77R
ELBOW LAKE     CLOUDY    66  54  63 E12       29.76S
WADENA         CLOUDY    59  52  77 NE7       29.78S
GLENWOOD       CLOUDY    64  57  77 E5        29.76S
APPLETON       CLOUDY    64  54  68 E6        29.75R
BENSON         CLOUDY    63  55  77 E5        29.75R
ORTONVILLE     PTSUNNY   64  52  63 N6        29.76R
MADISON        CLOUDY    63  54  72 NW5       29.75R
WILLMAR        FAIR      70  61  73 SE14      29.77R
$$
MNZ033>034-036-042>043-049>051-058-059-271500-
   Central Minnesota

CITY           SKY/WX    TMP DP  RH WIND       PRES   REMARKS
ST CLOUD       CLOUDY    66  57  72 SE8       29.78S
SAUK CENTRE    PTSUNNY   67  59  76 SE7       29.77S
PAYNESVILLE    MOSUNNY   68  58  69 S12       29.77S
AITKIN         MIX PCPN  64  52  63 SE5       29.81R
PINE RIVER     CLOUDY    63  54  72 CALM      29.84S
BRAINERD       CLOUDY    63  55  75 CALM      29.81R
STAPLES        PTSUNNY   61  52  72 E5        29.79R
LITTLE FALLS   CLOUDY    64  54  68 SE5       29.79R
LITCHFIELD     CLOUDY    66  61  82 SE5       29.77F
BUFFALO        CLOUDY    66  56  69 SE3       29.79F
MAPLE LAKE     CLOUDY    67  59  75 S5        29.80S
HUTCHINSON     MOSUNNY   66  60  79 SE8       29.78S
$$
MNZ037-044-045-052-053-271500-
   East Central Minnesota

CITY           SKY/WX    TMP DP  RH WIND       PRES   REMARKS
PRINCETON      CLOUDY    66  59  77 E7        29.80F
MORA           LGT RAIN  59  54  82 CALM      29.84R
CAMBRIDGE      LGT RAIN  66  55  68 SE3       29.80S
RUSH CITY      CLOUDY    65  56  73 S3        29.83R
MOOSE LAKE     LGT RAIN  54  50  87 CALM      29.83R
HINCKLEY       LGT RAIN  61  59  94 N3        29.84R
CLOQUET        CLOUDY    54  50  87 E8        29.86S
MCGREGOR       CLOUDY    59  52  77 SE6       29.84R
$$
MNZ071>073-080-081-089-090-097-098-271500-
   Southwest Minnesota

CITY           SKY/WX    TMP DP  RH WIND       PRES   REMARKS
MONTEVIDEO     CLOUDY    66  55  68 SW3       29.76R
GRANITE FALLS  CLOUDY    70  59  67 SE7       29.76R
CANBY          CLOUDY    66  58  73 N5        29.77R
MARSHALL       CLOUDY    66  57  72 S5        29.76R
REDWOOD FALLS  CLOUDY    66  56  70 S12       29.76R
OLIVIA         SUNNY     64  54  68 S9        29.76R
PIPESTONE      CLOUDY    63  55  77 S6        29.77S
WINDOM         CLOUDY    64  57  77 CALM      29.80R
WORTHINGTON    CLOUDY    63  57  81 SE6       29.79R
JACKSON        CLOUDY    63  55  77 SE8       29.80R
TRACY          CLOUDY    67  56  69 S5        29.77R
SLAYTON        CLOUDY    64  56  75 SE9       29.79R
$$
MNZ065>067-074>077-082>085-091>093-271500-
   South Central Minnesota

CITY           SKY/WX    TMP DP  RH WIND       PRES   REMARKS
MANKATO        CLOUDY    66  55  68 SE9G17    29.78S
NEW ULM        CLOUDY    64  59  82 S8        29.78R
ST JAMES       LGT RAIN  61  54  77 S8        29.80R
FAIRMONT       CLOUDY    64  55  72 SE12      29.80R
GLENCOE        CLOUDY    67  61  79 SE8       29.77S
FARIBAULT      CLOUDY    70  57  64 SE12      29.80S
OWATONNA       CLOUDY    66  57  72 E14G20    29.81R
WASECA         CLOUDY    68  55  64 SE12G18   29.81R
ALBERT LEA     CLOUDY    66  57  72 SE17      29.80S
$$
MNZ078>079-086>088-094>096-271500-
   Southeast Minnesota

CITY           SKY/WX    TMP DP  RH WIND       PRES   REMARKS
ROCHESTER      CLOUDY    63  60  90 SE10      29.84F
RED WING       LGT RAIN  64  61  88 E7        29.83F
STANTON        CLOUDY    67  57  70 SE12      29.81R
DODGE CENTER   PTSUNNY   64  57  77 SE10      29.83S
WINONA         CLOUDY    63  61  94 NW7       29.82F
AUSTIN         CLOUDY    63  59  88 SE3       29.82F
PRESTON        CLOUDY    62  58  87 N6        29.82F
$$
ABBREVIATIONS USED IN REMARKS
   TC - TEMPERATURES IN CELSIUS
  WCI - WIND CHILL INDEX
   HX - HEAT INDEX
  VSB - VISIBILITY
$$




USA.gov is the U.S. government's official web portal to all federal, state and local government web resources and services.